Location: Katwijk
(52.2000°N, 4.4170°E)
Time: 05:53:56
(UTC+02:00)

ISS - Visible Passes

Search period start: 20 September 2014 00:00
Search period end: 30 September 2014 00:00
Orbit: 414 x 417 km, 51.6° (Epoch: 19 September)

Date Brightness Start Highest point End Pass type
(mag) Time Alt. Az. Time Alt. Az. Time Alt. Az.
20 Sep -1.3 04:43:48 23° ESE 04:43:48 23° ESE 04:45:34 10° E visible
20 Sep -3.3 06:16:41 18° WSW 06:19:03 76° S 06:22:23 10° E visible
21 Sep -3.3 05:29:48 57° SSW 05:30:13 65° SSE 05:33:32 10° E visible
22 Sep -1.4 04:42:53 27° E 04:42:53 27° E 04:44:39 10° E visible
22 Sep -3.3 06:15:45 19° W 06:18:00 84° S 06:21:21 10° E visible
23 Sep -3.5 05:28:48 72° WSW 05:29:05 82° S 05:32:26 10° E visible
24 Sep -1.2 04:41:51 26° E 04:41:51 26° E 04:43:29 10° E visible
24 Sep -3.3 06:14:43 21° W 06:16:49 73° S 06:20:09 10° ESE visible
25 Sep -3.4 05:27:46 80° SSW 05:27:50 81° S 05:31:10 10° E visible
26 Sep -0.9 04:40:51 22° E 04:40:51 22° E 04:42:09 10° E visible
26 Sep -3.0 06:13:43 24° W 06:15:25 51° SSW 06:18:40 10° ESE visible
27 Sep -3.0 05:26:50 56° SSE 05:26:50 56° SSE 05:29:42 10° ESE visible
27 Sep -1.8 07:00:04 10° W 07:02:43 22° SSW 07:05:21 10° SSE visible
28 Sep -0.5 04:40:01 15° ESE 04:40:01 15° ESE 04:40:39 10° ESE visible
28 Sep -2.3 06:12:54 26° WSW 06:13:46 30° SSW 06:16:44 10° SE visible
29 Sep -1.6 05:26:11 25° SSE 05:26:11 25° SSE 05:27:54 10° SE visible
29 Sep -1.0 06:59:38 10° WSW 07:00:46 11° SW 07:01:54 10° SSW visible
